sat.trackr.live / text

‹ back to catalog

STARLINK-4762

NORAD 53866 · 2022-114BA

PAYLOAD ACTIVE UNKNOWN

§ Identity

Operator
Country
US
Launch date
2022-09-19
Launch site
AFETR
Launch vehicle
Mass (kg)
RCS (m²)

Purposes: comms

External: N2YO · Heavens-Above · Gunter

§ Orbital elements

Epoch: 2026-09-20T22:05:09.246624Z

Period
93.85 min
Inclination
53.1592°
Eccentricity
0.0001311
Mean motion
15.34386006 rev/d
Perigee alt
461.8 km
Apogee alt
463.6 km
Semi-major
6,840.9 km
B*
-2.5536e-6
RAAN
91.7273°
Arg perigee
90.9795°
Mean anomaly
269.1358°
Rev number
22,308

§ Raw data

STARLINK-47621 53866U 22114BA  26263.92024591 -.00000462  00000+0 -25536-5 0  99982 53866  53.1592  91.7273 0001311  90.9795 269.1358 15.34386006223084

JSON: /api/v1/satellites/53866 · /tle

For live sub-satellite position, see the globe view (requires WebGL).

§ Visibility from observer

Set your observer location to see the next 7 days of passes ≥ 10°. The values pass through the URL so the page stays shareable.

No JS? Fill the form by hand. The geolocation button needs JavaScript.